GFSFLT1_con_lsi_102.txt.gz
Lid_Strength_Index
6 6 5 4 4 3 3 2 2 2 2 2 1 1 2 1 2 2 1 2 2 1 1 1 1 0 0 0 1 0 1 1 1
6 6 5 5 4 3 3 3 2 2 2 2 2 1 1 1 1 2 1 1 1 1 1 0 0 0 1 0 0 0 0 1 1
7 6 5 5 4 3 3 2 2 2 2 2 2 1 1 1 1 1 1 2 2 1 1 0 1 1 0 0 0 0 1 1 1
7 6 5 5 4 3 3 2 2 2 2 2 2 1 1 1 1 1 1 1 1 1 1 1 1 1 1 0 1 1 1 1 1
6 6 5 4 4 3 3 3 2 2 2 2 1 1 1 2 1 1 1 1 1 1 1 2 1 1 1 0 1 1 1 2 1
6 6 5 4 4 4 3 3 2 2 2 2 1 1 1 2 2 2 1 1 1 1 1 2 2 2 1 1 1 1 1 1 1
6 6 5 5 4 4 3 3 3 2 2 1 1 1 1 1 1 1 2 1 1 1 1 1 1 1 1 2 2 1 0 1 1
7 7 6 6 6 5 4 4 3 2 2 2 1 1 1 1 1 1 2 2 1 1 1 0 1 1 0 0 0 0 1 1 1
8 7 7 7 6 7 6 5 4 4 4 4 3 3 2 1 1 1 1 1 1 1 1 1 1 1 1 1 1 3 3 2 1
7 8 8 7 7 8 7 7 5 5 5 4 5 5 4 3 1 1 1 1 1 1 2 2 2 1 1 1 1 4 4 4 2
8 8 8 8 6 6 6 5 5 5 5 6 6 6 5 4 4 3 2 2 2 1 1 1 1 1 2 2 1 5 6 5 3
8 8 8 8 6 6 6 5 4 4 4 5 6 7 7 6 6 6 4 3 4 2 2 2 1 1 1 2 2 5 7 6 3
8 8 7 7 6 6 6 5 5 5 6 5 5 6 6 5 6 6 6 5 5 4 4 3 2 2 1 2 1 5 7 6 3
8 7 7 7 7 7 7 7 7 7 6 6 4 4 4 4 5 5 4 5 5 6 6 4 4 2 1 1 2 2 7 7 3
8 8 7 7 8 8 7 7 7 7 7 6 5 5 4 4 4 3 2 3 3 4 4 5 4 2 4 2 1 6 8 9 8
8 8 9 8 9 8 8 7 7 8 7 6 6 6 6 5 4 4 4 3 3 3 3 4 4 4 5 6 3 2 6 7 7
8 7 8 7 7 8 9 8 7 7 7 6 7 7 7 6 6 6 5 4 4 4 4 4 4 5 5 5 4 5 4 2 3
8 8 8 8 8 8 9 8 8 8 7 8 8 8 8 8 8 8 6 6 6 5 5 7 7 5 6 5 5 5 5 5 5
7 7 7 8 9 9 9 8 8 7 7 8 9 9 9 9 8 8 7 7 6 6 7 7 8 9 9 5 7 8 9 10 11
5 7 7 7 8 8 8 8 9 8 8 9 9 10 9 9 8 8 8 8 8 8 6 6 6 8 8 8 10 10 10 11 11

GFSFLT1_con_lsi_105.txt.gz
Lid_Strength_Index
6 6 5 4 4 3 3 3 2 2 2 2 2 2 1 2 2 2 1 2 2 2 2 1 1 1 1 1 0 0 0 1 1
7 6 5 5 4 3 3 3 2 2 2 2 2 1 1 1 2 2 2 1 2 2 1 1 1 1 0 1 1 1 1 1 1
7 6 5 5 4 3 3 2 2 2 2 2 2 1 1 1 1 2 2 1 2 2 1 0 0 1 1 1 1 1 1 2 2
7 6 5 5 4 3 3 2 2 2 3 2 2 2 1 1 1 1 2 2 2 2 1 1 1 1 2 1 1 1 1 2 2
6 5 5 4 4 3 3 3 2 2 2 2 2 2 2 2 2 2 2 1 1 0 2 2 1 1 2 1 0 1 1 1 1
6 6 5 5 4 4 4 3 3 2 2 2 1 1 2 2 2 2 2 1 1 1 1 2 2 2 2 1 1 1 1 1 1
6 6 5 5 4 4 3 3 3 3 2 1 1 1 1 2 2 1 2 2 1 1 1 2 2 2 2 2 1 1 0 1 1
6 6 6 6 5 4 3 3 3 2 2 1 1 1 1 2 1 1 1 1 2 1 1 1 2 2 2 2 1 1 1 1 1
8 7 7 7 6 6 5 4 4 4 4 3 1 2 2 1 1 1 1 1 2 1 1 1 1 1 1 2 1 3 3 1 1
8 8 7 7 7 7 7 6 5 6 5 4 4 4 4 3 1 1 1 1 1 1 1 1 1 1 1 1 1 4 5 4 1
9 8 9 9 8 8 7 6 7 6 6 7 6 5 5 4 4 3 2 2 2 1 1 1 1 1 1 1 1 5 7 5 3
9 8 8 8 8 8 7 8 8 8 8 8 7 8 7 6 5 4 4 4 4 4 3 2 2 2 2 1 1 5 7 6 3
9 7 6 7 7 7 7 7 7 6 7 7 9 8 8 7 6 6 5 6 5 4 4 3 2 2 1 2 1 5 7 6 2
7 7 7 7 7 8 8 8 7 8 8 8 7 6 5 6 6 6 6 6 6 7 5 6 4 4 3 2 3 2 7 7 3
8 8 8 8 9 9 8 8 8 9 9 8 8 7 7 6 6 5 5 5 6 6 7 7 7 6 6 6 4 5 6 8 7
8 8 9 8 9 10 9 9 9 10 9 8 8 8 8 8 7 6 6 6 5 6 6 6 6 5 6 6 6 6 7 7 7
8 9 9 10 11 11 11 10 9 10 10 9 9 10 9 9 9 8 7 7 6 6 7 7 6 6 6 6 5 5 6 7 7
8 9 9 9 10 10 11 10 10 10 10 10 10 10 10 10 9 10 9 9 8 7 8 8 8 7 7 7 7 7 9 9 8
8 9 9 10 10 10 10 9 9 9 9 9 10 10 10 10 10 10 10 10 10 8 8 9 9 10 9 7 8 10 10 11 10
7 8 8 9 9 9 9 10 9 9 9 10 10 11 11 11 10 10 10 10 10 11 10 9 9 10 10 10 10 10 11 11 11

GFSFLT1_con_lsi_111.txt.gz
Lid_Strength_Index
5 4 4 3 3 3 3 2 2 1 1 1 0 0 0 -0 -0 0 0 -0 0 0 -0 -1 -1 -2 -1 -1 -1 -1 -1 -1 -1
6 5 4 4 3 3 2 2 2 1 1 1 1 0 0 0 -0 -0 0 -0 -1 -0 -1 -1 -1 -1 -1 -1 -1 -1 -1 -0 -0
6 5 4 4 3 3 3 2 2 1 1 1 0 0 -0 0 -0 -0 -0 -0 -0 -0 -1 -1 -1 -1 -1 -1 -1 -1 -1 -0 -1
6 5 4 4 4 3 3 2 2 2 1 1 1 0 0 -0 0 -0 -0 -0 -0 -0 -1 -1 -1 -1 -1 -1 -1 -1 -1 -1 -0
6 5 5 4 4 3 2 2 2 2 1 1 1 0 0 0 -0 -0 0 0 -0 -1 -0 -1 -1 -1 -1 -0 -0 -1 -0 0 -0
6 5 5 4 4 4 3 3 2 2 1 1 0 0 0 0 0 0 0 -0 -0 -0 -1 -1 -1 -1 -0 -0 -0 -0 -0 -0 -0
6 6 5 5 4 4 3 3 2 2 2 1 1 1 1 1 1 0 0 -0 -0 -0 -1 -0 -0 -1 -0 -0 -0 -0 -0 -0 -0
6 6 6 5 5 4 3 3 2 2 2 1 1 1 1 1 0 -0 -0 -0 -0 -0 -0 -0 -1 -0 -0 -1 -0 -0 -0 -0 -0
7 6 5 5 4 4 4 4 3 2 2 1 1 1 1 1 0 0 0 -0 -0 -0 -0 -0 -1 -0 -0 -0 -0 3 4 1 -0
6 6 5 5 6 6 6 5 4 5 4 3 3 2 1 1 2 1 0 0 0 0 0 -0 0 0 -0 0 -0 6 5 4 -0
6 6 6 6 6 7 6 6 6 5 5 5 5 4 2 2 3 3 2 1 0 0 -0 0 0 0 -0 0 3 7 7 5 -0
6 5 5 6 6 6 7 7 7 7 7 6 5 5 3 3 3 3 3 3 3 2 1 1 0 0 0 1 4 8 8 2 -0
5 4 6 6 7 7 7 8 7 8 7 7 6 5 4 4 4 3 4 3 3 2 1 1 2 2 3 6 5 9 9 4 2
4 4 5 7 7 7 6 6 7 7 7 7 6 6 6 5 5 5 5 5 4 4 4 3 4 4 4 5 7 8 9 9 3
5 6 6 5 5 6 5 5 5 6 6 5 5 5 5 4 4 4 4 4 5 5 4 4 3 4 4 5 5 9 9 9 8
6 5 6 6 6 6 6 6 5 6 6 5 5 5 5 5 5 4 3 3 4 3 4 4 4 3 3 3 4 6 9 9 9
7 6 7 6 6 6 6 5 5 5 6 5 5 5 6 6 6 5 5 5 5 5 5 4 5 5 6 5 5 6 6 6 5
6 7 6 6 6 6 6 6 6 6 6 6 6 7 7 7 7 7 6 7 6 6 7 7 6 7 6 6 8 10 10 10 8
7 6 6 6 6 6 6 6 7 7 7 6 7 8 8 9 8 8 8 8 9 11 10 11 12 11 10 8 11 11 12 12 12
7 6 6 6 6 6 6 7 8 7 7 7 7 9 9 9 9 9 9 9 9 10 10 11 12 12 12 12 13 12 12 12 12

GFSFLT1_con_lsi_114.txt.gz
Lid_Strength_Index
4 4 3 3 2 2 3 1 1 1 1 1 0 -0 -0 -1 -1 -0 -0 -0 -1 0 0 -0 -2 -1 -1 -2 -2 -1 -2 -1 -1
6 4 3 3 2 2 2 1 1 1 1 0 0 0 -0 -0 -1 -1 -1 -1 -1 -0 -1 -1 -1 -1 -1 -1 -2 -2 -2 -1 -1
6 5 4 3 2 2 1 2 1 1 0 1 0 -0 -0 -0 -0 -1 -1 -1 -1 -1 -1 -1 -1 -1 -1 -1 -1 -1 -1 -1 -1
5 5 4 3 2 2 1 1 2 1 1 1 0 -0 -0 -0 -0 -1 -1 -1 -1 -1 -1 -1 -1 -1 -1 -1 -1 -1 -1 -1 -1
4 4 3 3 3 2 2 2 2 2 1 1 0 -0 -0 -0 -0 -0 -0 -0 -1 -1 -1 -1 -1 -1 -1 -1 -1 -1 -1 -0 -1
5 4 4 4 3 4 3 2 2 2 1 1 0 0 0 0 -0 -0 -0 -0 -1 -1 -1 -1 -1 -1 -1 -1 -1 -1 -1 -1 -1
6 5 4 4 4 4 3 2 2 2 1 1 1 0 0 0 0 -0 -0 -1 -1 -1 -1 -1 -1 -1 -1 -1 -1 -1 -1 -1 -0
6 6 5 4 4 3 3 3 2 2 1 1 1 0 1 0 0 -0 -0 -0 -0 -1 -1 -1 -1 -1 -1 -1 -1 -0 -1 -1 -0
7 6 5 5 4 3 3 3 3 2 2 2 1 1 1 1 0 0 -0 -0 -0 -0 -1 -1 -1 -0 -0 -0 -0 3 3 1 -0
6 6 5 5 5 5 4 3 2 2 2 1 1 1 1 1 0 1 0 0 -0 -0 -0 -0 -0 -0 -0 -0 -0 8 6 3 -0
6 5 5 5 6 6 6 5 4 3 3 2 1 1 1 0 0 1 2 1 0 -0 -0 -0 -0 -0 -0 1 4 9 8 5 -1
4 4 5 5 6 6 6 6 5 5 4 4 3 3 2 1 1 2 2 2 1 0 0 0 0 0 1 1 4 9 9 4 -1
4 5 6 6 5 7 7 7 6 6 6 5 4 4 2 0 0 0 1 1 1 0 0 1 1 3 4 6 5 9 9 5 -0
5 5 5 5 6 6 7 7 7 7 7 7 5 4 3 2 1 1 1 1 0 -0 0 0 1 2 3 4 5 7 9 8 3
4 5 6 6 6 6 6 5 6 6 6 5 5 4 4 3 3 3 2 2 2 1 0 1 0 0 2 2 3 9 9 9 9
3 3 3 3 5 4 4 4 4 5 5 4 4 3 4 4 3 3 2 1 0 1 0 0 1 2 2 1 2 3 6 7 8
3 3 4 4 4 4 5 4 4 3 4 3 3 4 4 4 3 2 1 1 1 1 0 0 0 2 2 2 4 6 6 5 4
3 4 4 3 4 4 4 5 4 4 4 4 4 4 4 4 4 3 3 4 5 5 7 7 2 3 3 3 4 8 10 11 9
4 4 4 4 4 4 5 5 5 5 4 4 4 5 5 5 5 5 4 5 7 11 11 11 12 12 9 7 11 12 12 12 12
5 5 5 5 4 4 4 5 5 5 5 5 5 5 6 6 6 6 6 6 6 8 11 11 12 13 13 13 13 13 13 13 12

GFSFLT1_con_lsi_117.txt.gz
Lid_Strength_Index
4 4 3 3 3 2 2 2 1 1 1 1 0 -0 -0 -1 -1 0 0 -0 -0 -0 -0 -0 -1 -1 -1 -1 -2 -2 -2 -1 -1
5 4 3 3 2 2 2 1 2 1 1 1 0 0 -0 -0 -1 -1 -0 -1 -1 -0 -1 -1 -1 -1 -1 -2 -1 -2 -2 -0 -1
5 4 4 3 3 3 1 1 1 1 0 1 0 -0 -0 -0 -0 -1 -1 -1 -1 -1 -1 -1 -1 -1 -1 -1 -1 -1 -2 -1 -1
5 5 5 4 2 2 3 1 1 1 1 1 0 0 -0 -0 -0 -1 -1 -0 -1 -1 -1 -1 -1 -1 -1 -1 -1 -1 -1 -1 -1
4 4 4 3 3 2 2 2 2 2 1 1 0 -0 -0 0 -0 -1 -0 -0 -1 -1 -1 -1 -1 -1 -1 -1 -1 -1 -1 -0 -1
5 5 4 3 3 3 3 2 2 1 1 1 1 0 0 0 0 -0 -0 -0 -1 -1 -1 -1 -1 -1 -1 -1 -1 -1 -1 -1 -0
5 5 4 4 4 3 3 2 2 2 2 1 0 1 1 1 0 -0 -0 -1 -1 -1 -1 -1 -1 -1 -1 -1 -1 -1 -1 -0 -0
6 5 5 4 4 4 3 3 2 2 1 1 1 1 1 0 -0 -1 -0 -0 -1 -1 -1 -1 -1 -1 -1 -1 -1 -0 -0 -0 -0
6 6 5 4 4 4 3 3 2 2 2 1 1 1 1 0 0 -0 -0 -0 -0 -0 -1 -1 -1 -1 -0 -0 -0 6 5 1 -0
6 6 5 4 4 3 3 2 2 2 2 1 1 1 1 1 0 1 0 0 -0 0 0 -1 -0 -0 -0 0 2 8 6 4 -0
6 5 5 5 5 5 3 2 2 1 1 1 1 1 1 1 1 1 1 0 0 0 -0 -0 -0 -0 -0 1 4 9 8 5 -0
4 4 4 5 5 6 6 5 4 2 2 1 1 2 1 1 1 1 1 2 2 2 1 1 1 2 1 1 4 9 8 5 -0
4 4 5 6 7 7 6 7 6 5 4 3 3 2 1 1 0 1 1 2 1 1 1 1 0 1 2 4 5 9 9 6 -0
3 3 4 4 5 7 7 7 6 7 6 7 4 3 2 0 -0 0 0 0 0 0 1 1 2 2 2 3 5 7 9 9 2
3 3 4 4 5 5 4 5 6 7 7 6 5 4 3 2 1 1 1 -0 0 0 0 1 1 1 2 2 4 8 9 9 8
3 3 4 4 4 5 4 4 5 6 5 4 5 5 5 3 2 1 1 1 1 1 0 1 1 1 1 1 2 3 7 7 6
3 3 4 4 5 5 5 4 4 4 4 3 4 4 4 4 3 3 2 2 1 0 1 1 1 1 1 1 2 4 5 7 5
3 2 2 3 3 4 4 4 4 4 4 4 4 4 4 4 5 4 4 7 8 3 8 9 2 2 1 2 2 7 10 10 7
2 2 3 3 3 3 3 3 4 3 3 3 4 4 5 5 4 4 5 5 7 11 11 12 12 12 9 8 11 11 12 12 12
3 2 2 2 3 4 3 4 4 4 4 4 4 5 5 6 6 5 4 4 5 8 11 11 12 12 12 12 13 12 12 13 12

GFSFLT1_con_lsi_123.txt.gz
Lid_Strength_Index
5 5 4 4 4 3 3 2 2 2 2 2 1 1 1 1 1 1 1 1 1 1 1 1 0 0 0 0 0 0 0 0 0
6 5 4 4 3 3 3 2 2 2 2 2 1 1 1 1 1 1 1 1 1 1 0 0 0 0 0 0 0 0 0 1 1
6 5 4 4 4 3 3 2 2 2 2 2 1 1 1 1 1 1 1 1 1 1 1 0 0 0 0 0 0 0 1 1 1
6 5 5 4 3 3 3 2 2 2 2 2 2 1 1 1 1 1 1 1 1 1 0 0 0 0 0 1 1 0 1 1 1
6 5 4 4 4 3 3 4 2 2 2 2 2 1 1 1 1 1 1 1 1 0 1 0 0 0 1 1 1 0 1 1 1
6 5 5 4 4 4 3 3 3 3 3 2 2 2 1 1 1 1 1 1 1 0 0 0 0 0 1 1 1 1 0 1 1
6 6 5 5 5 4 3 3 3 3 3 2 2 1 2 2 2 1 1 1 1 1 1 1 1 1 1 0 0 0 0 0 1
6 6 6 5 5 4 4 3 3 2 2 2 1 2 2 2 1 1 1 1 1 1 0 0 0 1 1 0 3 4 4 3 1
7 6 6 5 4 4 4 3 3 2 2 2 1 2 2 1 1 1 1 1 1 1 1 1 1 1 1 3 4 6 5 4 2
7 6 6 5 5 4 4 3 2 3 2 1 2 2 2 1 2 2 1 1 1 1 1 2 1 1 4 6 8 8 8 5 2
6 6 6 6 4 4 3 2 2 2 2 2 2 2 2 2 1 2 1 1 1 2 1 2 2 3 5 7 9 9 8 6 3
6 6 7 6 5 5 4 3 2 2 2 2 2 2 2 2 1 2 1 2 1 1 2 2 3 3 5 8 10 9 7 3 2
5 6 6 7 6 6 6 4 3 4 5 5 4 2 2 1 1 2 2 1 1 1 2 3 4 6 7 8 10 9 9 7 4
5 6 6 6 6 6 6 5 5 5 5 6 4 3 2 1 1 1 1 1 2 3 3 3 5 7 6 8 9 10 10 9 8
5 6 6 6 6 6 5 5 5 6 6 5 4 4 3 3 1 1 1 1 1 2 3 4 5 6 7 8 10 10 10 9 9
4 5 5 5 5 5 5 5 6 6 6 5 5 5 5 4 3 5 4 3 1 2 2 3 5 6 7 8 7 9 10 10 9
4 4 5 5 5 5 5 6 5 5 5 5 5 6 5 5 7 10 11 9 10 11 11 9 7 4 5 6 10 12 13 13 12
4 4 5 5 6 5 5 6 6 5 4 4 5 5 5 5 6 10 12 14 12 14 15 14 11 10 11 8 11 14 13 13 13
4 4 4 5 5 6 5 5 6 6 5 4 5 6 4 6 5 7 8 11 13 13 14 14 14 13 13 14 13 12 12 12 12
3 3 3 4 5 5 5 6 5 5 5 5 6 6 7 6 5 5 6 7 9 12 13 13 14 14 14 13 13 12 13 13 12